User: anonymous   Login
Location: Karlovy Vary
(50.2170°N, 12.9000°E)
Time: 19:07:40
(UTC+01:00)
Language:

ISS - Orbit

View from above orbital plane
View from above orbital plane
View from above satellite
View from above satellite

Ground track
Ground track

The orbit data is extracted from the following two-line orbital elements,

1 25544U 98067A   14332.44945257  .00017835  00000-0  30232-3 0  4737
2 25544 051.6478 005.1800 0007335 076.2621 359.6935 15.51570451916818
Epoch (UTC): 28 November 2014 10:47:12
Eccentricity: 0.0007335
inclination: 51.6478°
perigee height: 407 km
apogee height: 417 km
right ascension of ascending node: 5.1800°
argument of perigee: 76.2621°
revolutions per day: 15.51570451
mean anomaly at epoch: 359.6935°
orbit number at epoch: 91681

The dashed part of the orbit path shows where the satellite is in the earth's shadow,  

DLR